Chillicothe, MO

4:09 AM CDT on October 21, 2019 (GMT -0500)
Chillicothe

Weather History for KCDJ - August, 2019

Change the Weather History Date:

Tuesday, August 13, 2019

  Actual Average (KIRK) Record (KIRK)
Temperature  
Mean Temperature 80 °F -  
Max Temperature 89 °F 83 °F 106 °F (1936)
Min Temperature 70 °F 63 °F 44 °F (1964)
Cooling Degree Days 14    
Growing Degree Days 30 (Base 50)    
Moisture  
Dew Point 70 °F    
Average Humidity 77    
Maximum Humidity 97    
Minimum Humidity 48    
Precipitation  
Precipitation 0.00 in - - ()
Sea Level Pressure  
Sea Level Pressure 29.91 in    
Wind  
Wind Speed 2 mph (NW)    
Max Wind Speed 8 mph    
Max Gust Speed -    
Averages and records for this station are not official NWS values.
T = Trace of Precipitation, MM = Missing Value Source: NWS Daily Summary

Daily Weather History Graph

Daily Weather History Graph

Search for Another Location

Airport or City:

Astronomy

Aug. 13, 2019 Rise Set
Actual Time 6:24 AM CDT 8:13 PM CDT
Civil Twilight 5:55 AM CDT 8:42 PM CDT
Nautical Twilight 5:19 AM CDT 9:17 PM CDT
Astronomical Twilight 4:41 AM CDT 9:55 PM CDT
Moon 7:28 PM CDT (8/13) 4:26 AM CDT (8/13)
Length of Visible Light 14h 47m
Length of Day
13h 49m
Waxing Gibbous, 97% of the Moon is Illuminated
Aug 13
Waxing Gibbous
Aug 15
Full
Aug 23
Last Quarter
Aug 30
New
Sep 5
First Quarter

Hourly Weather History & Observations

Time (CDT) Temp. Heat Index Dew Point Humidity Pressure Visibility Wind Dir Wind Speed Gust Speed Precip Events Conditions
12:52 AM 75.9 °F - 73.9 °F 94% 29.81 in - Calm Calm - N/A   Unknown
1:52 AM 75.0 °F - 73.0 °F 94% 29.81 in - Calm Calm - N/A   Unknown
2:52 AM 75.0 °F - 72.0 °F 90% 29.82 in - Variable 3.5 mph - N/A   Unknown
3:52 AM 73.0 °F - 72.0 °F 96% 29.84 in - Calm Calm - N/A   Unknown
4:52 AM 73.0 °F - 71.1 °F 93% 29.86 in - Calm Calm - N/A   Unknown
6:52 AM 72.0 °F - 71.1 °F 97% 29.90 in - Calm Calm - N/A   Unknown
7:52 AM 75.9 °F - 72.0 °F 87% 29.90 in - NW 3.5 mph - N/A   Unknown
8:52 AM 79.0 °F - 73.0 °F 82% 29.91 in - Variable 4.6 mph - N/A   Unknown
9:52 AM 82.9 °F 88.8 °F 73.0 °F 72% 29.90 in - Variable 3.5 mph - N/A   Unknown
10:52 AM 84.0 °F 89.6 °F 72.0 °F 67% 29.92 in - Variable 4.6 mph - N/A   Unknown
11:52 AM 86.0 °F 93.0 °F 73.0 °F 65% 29.93 in - Variable 3.5 mph - N/A   Unknown
1:52 PM 87.1 °F 92.0 °F 70.0 °F 57% 29.93 in - NW 8.1 mph - N/A   Unknown
2:52 PM 88.0 °F 91.4 °F 68.0 °F 51% 29.93 in - NW 5.8 mph - N/A   Unknown
3:52 PM 88.0 °F 91.4 °F 68.0 °F 51% 29.94 in - Variable 5.8 mph - N/A   Unknown
4:52 PM 87.1 °F 89.9 °F 66.9 °F 51% 29.93 in - Variable 4.6 mph - N/A   Unknown
5:52 PM 87.1 °F 88.9 °F 64.9 °F 48% 29.93 in - North - - N/A   Unknown
6:52 PM 84.9 °F 87.1 °F 66.0 °F 53% 29.92 in - NNW 3.5 mph - N/A   Unknown
7:52 PM 78.1 °F - 69.1 °F 74% 29.94 in - Calm Calm - N/A   Unknown
8:52 PM 73.0 °F - 71.1 °F 93% 29.95 in - Calm Calm - N/A   Unknown
9:52 PM 72.0 °F - 69.1 °F 91% 29.98 in - Calm Calm - N/A   Unknown
10:52 PM 71.1 °F - 69.1 °F 93% 29.99 in - Calm Calm - N/A   Unknown
11:52 PM 70.0 °F - 68.0 °F 93% 30.00 in - Calm Calm - N/A   Unknown